StationID,Date,MaxTemp,MinTemp,Precipitation,Snowfall,SnowDepth
"CA002200310","1968-06-01",69.98,39.92,0.00,0.00,
"CA002200310","1968-06-02",69.98,51.08,0.00,0.00,
"CA002200310","1968-06-03",59.00,44.96,0.00,0.00,
"CA002200310","1968-06-04",64.04,44.96,0.00,0.00,
"CA002200310","1968-06-05",66.02,32.00,0.00,0.00,
"CA002200310","1968-06-06",64.04,46.94,0.00,0.00,
"CA002200310","1968-06-07",73.04,39.92,0.00,0.00,
"CA002200310","1968-06-08",73.04,44.96,41.00,0.00,
"CA002200310","1968-06-09",66.92,44.96,0.00,0.00,
"CA002200310","1968-06-10",66.92,39.92,0.00,0.00,
"CA002200310","1968-06-11",73.04,35.96,0.00,0.00,
"CA002200310","1968-06-12",51.98,41.00,0.00,0.00,
"CA002200310","1968-06-13",62.06,30.02,0.00,0.00,
"CA002200310","1968-06-14",75.02,39.02,0.00,0.00,
"CA002200310","1968-06-15",80.96,46.04,28.00,0.00,
"CA002200310","1968-06-16",66.92,46.94,0.00,0.00,
"CA002200310","1968-06-17",55.94,39.02,0.00,0.00,
"CA002200310","1968-06-18",69.08,24.98,0.00,0.00,
"CA002200310","1968-06-19",69.98,46.04,18.00,0.00,
"CA002200310","1968-06-20",69.98,44.06,0.00,0.00,
"CA002200310","1968-06-21",62.06,37.04,0.00,0.00,
"CA002200310","1968-06-22",66.92,44.96,152.00,0.00,
"CA002200310","1968-06-23",68.00,35.06,0.00,0.00,
"CA002200310","1968-06-24",75.92,44.96,0.00,0.00,
"CA002200310","1968-06-25",84.92,53.96,23.00,0.00,
"CA002200310","1968-06-26",75.02,57.92,0.00,0.00,
"CA002200310","1968-06-27",75.92,51.98,25.00,0.00,
"CA002200310","1968-06-28",55.04,44.96,0.00,0.00,
"CA002200310","1968-06-29",66.02,39.92,0.00,0.00,
"CA002200310","1968-06-30",75.92,39.02,0.00,0.00,
"CA002200310","1968-07-01",71.96,55.04,0.00,0.00,
"CA002200310","1968-07-02",66.92,46.94,0.00,0.00,
"CA002200310","1968-07-03",66.92,44.06,0.00,0.00,
"CA002200310","1968-07-04",84.02,46.94,0.00,0.00,
"CA002200310","1968-07-05",73.04,59.00,0.00,0.00,
"CA002200310","1968-07-06",59.00,55.94,208.00,0.00,
"CA002200310","1968-07-07",66.92,51.08,10.00,0.00,
"CA002200310","1968-07-08",71.06,35.96,0.00,0.00,
"CA002200310","1968-07-09",64.94,48.92,0.00,0.00,
"CA002200310","1968-07-10",64.04,39.02,0.00,0.00,
"CA002200310","1968-07-11",71.96,42.98,0.00,0.00,
"CA002200310","1968-07-12",59.00,53.96,41.00,0.00,
"CA002200310","1968-07-13",66.02,53.96,330.00,0.00,
"CA002200310","1968-07-14",60.08,42.98,0.00,0.00,
"CA002200310","1968-07-15",68.00,39.92,0.00,0.00,
"CA002200310","1968-07-16",64.04,39.02,20.00,0.00,
"CA002200310","1968-07-17",73.04,37.04,0.00,0.00,
"CA002200310","1968-07-18",71.96,37.94,0.00,0.00,
"CA002200310","1968-07-19",77.00,42.98,0.00,0.00,
"CA002200310","1968-07-20",,51.08,8.00,0.00,
"CA002200310","1968-07-21",,,0.00,0.00,
"CA002200310","1968-07-22",,,0.00,0.00,
"CA002200310","1968-07-23",,,0.00,0.00,
"CA002200310","1968-07-24",,,0.00,0.00,
"CA002200310","1968-07-25",,,0.00,0.00,
"CA002200310","1968-07-26",64.04,,0.00,0.00,
"CA002200310","1968-07-27",64.94,42.08,0.00,0.00,
"CA002200310","1968-07-28",68.00,50.00,0.00,0.00,
"CA002200310","1968-07-29",75.92,42.98,0.00,0.00,
"CA002200310","1968-07-30",78.08,44.06,0.00,0.00,
"CA002200310","1968-07-31",82.94,42.08,0.00,0.00,
"CA002200310","1968-08-01",82.04,39.92,0.00,0.00,
"CA002200310","1968-08-02",73.04,44.96,0.00,0.00,
"CA002200310","1968-08-03",73.94,50.00,18.00,0.00,
"CA002200310","1968-08-04",71.06,46.04,0.00,0.00,
"CA002200310","1968-08-05",55.04,33.98,0.00,0.00,
"CA002200310","1968-08-06",62.96,39.02,0.00,0.00,
"CA002200310","1968-08-07",62.06,44.06,0.00,0.00,
"CA002200310","1968-08-08",64.04,37.04,0.00,0.00,
"CA002200310","1968-08-09",71.96,42.08,0.00,0.00,
"CA002200310","1968-08-10",66.92,37.94,0.00,0.00,
"CA002200310","1968-08-11",75.92,35.96,0.00,0.00,
"CA002200310","1968-08-12",66.02,33.98,0.00,0.00,
"CA002200310","1968-08-13",66.92,37.94,0.00,0.00,
"CA002200310","1968-08-14",71.96,37.04,0.00,0.00,
"CA002200310","1968-08-15",73.04,24.08,0.00,0.00,
"CA002200310","1968-08-16",69.08,44.96,0.00,0.00,
"CA002200310","1968-08-17",73.94,51.98,0.00,0.00,
"CA002200310","1968-08-18",73.94,48.92,0.00,0.00,
"CA002200310","1968-08-19",69.08,44.96,0.00,0.00,
"CA002200310","1968-08-20",68.00,46.04,0.00,0.00,
"CA002200310","1968-08-21",71.96,51.08,0.00,0.00,
"CA002200310","1968-08-22",77.00,44.96,0.00,0.00,
"CA002200310","1968-08-23",80.06,51.98,0.00,0.00,
"CA002200310","1968-08-24",82.04,50.00,48.00,0.00,
"CA002200310","1968-08-25",75.02,50.00,46.00,0.00,
"CA002200310","1968-08-26",64.94,44.06,0.00,0.00,
"CA002200310","1968-08-27",64.94,42.98,0.00,0.00,
"CA002200310","1968-08-28",66.02,37.04,0.00,0.00,
"CA002200310","1968-08-29",66.92,35.96,150.00,0.00,
"CA002200310","1968-08-30",64.04,32.00,0.00,0.00,
"CA002200310","1968-08-31",60.98,48.02,122.00,0.00,
"CA002200310","1968-09-01",60.98,41.00,122.00,0.00,
"CA002200310","1968-09-02",60.98,42.08,53.00,0.00,
"CA002200310","1968-09-03",48.02,35.06,0.00,0.00,
"CA002200310","1968-09-04",50.00,33.08,0.00,0.00,
"CA002200310","1968-09-05",50.00,23.00,0.00,0.00,
"CA002200310","1968-09-06",57.02,33.08,23.00,0.00,
"CA002200310","1968-09-07",60.08,42.08,0.00,0.00,
"CA002200310","1968-09-08",60.98,42.98,0.00,0.00,
"CA002200310","1968-09-09",64.94,48.92,0.00,0.00,
"CA002200310","1968-09-10",64.04,37.94,0.00,0.00,
"CA002200310","1968-09-11",69.08,39.92,0.00,0.00,
"CA002200310","1968-09-12",68.00,42.08,0.00,0.00,
"CA002200310","1968-09-13",53.96,35.96,0.00,0.00,
"CA002200310","1968-09-14",57.02,30.02,0.00,0.00,
"CA002200310","1968-09-15",51.08,30.92,0.00,0.00,
"CA002200310","1968-09-16",51.08,28.94,0.00,0.00,
"CA002200310","1968-09-17",51.08,33.08,0.00,0.00,
"CA002200310","1968-09-18",51.08,26.96,0.00,0.00,
"CA002200310","1968-09-19",51.98,26.06,0.00,0.00,
"CA002200310","1968-09-20",53.06,26.96,0.00,0.00,
"CA002200310","1968-09-21",55.04,26.06,0.00,0.00,
"CA002200310","1968-09-22",42.98,35.06,,0.00,
"CA002200310","1968-09-23",,,,0.00,
"CA002200310","1968-09-24",,,,0.00,
"CA002200310","1968-09-25",,,,0.00,
"CA002200310","1968-09-26",,,,0.00,
"CA002200310","1968-09-27",,,,0.00,
"CA002200310","1968-09-28",,,,0.00,
"CA002200310","1968-09-29",,,,0.00,
"CA002200310","1968-09-30",,,,0.00,
"CA002200310","1969-05-13",42.98,,0.00,0.00,
"CA002200310","1969-05-14",41.00,23.00,0.00,0.00,
"CA002200310","1969-05-15",51.08,30.02,0.00,0.00,
"CA002200310","1969-05-16",62.96,21.02,0.00,0.00,
"CA002200310","1969-05-17",53.96,30.92,0.00,0.00,
"CA002200310","1969-05-18",44.96,28.04,0.00,0.00,
"CA002200310","1969-05-19",48.92,19.94,0.00,0.00,
"CA002200310","1969-05-20",55.04,17.96,0.00,0.00,
"CA002200310","1969-05-21",60.98,30.02,0.00,0.00,
"CA002200310","1969-05-22",66.92,32.00,0.00,0.00,
"CA002200310","1969-05-23",64.04,23.00,0.00,0.00,
"CA002200310","1969-05-24",71.06,46.94,0.00,0.00,
"CA002200310","1969-05-25",39.02,37.04,18.00,0.00,
"CA002200310","1969-05-26",37.04,28.04,38.00,0.00,
"CA002200310","1969-05-27",41.00,28.94,20.00,0.00,
"CA002200310","1969-05-28",51.98,32.00,0.00,0.00,
"CA002200310","1969-05-29",66.92,35.06,0.00,0.00,
"CA002200310","1969-05-30",69.98,39.92,0.00,0.00,
"CA002200310","1969-05-31",75.92,42.08,0.00,0.00,
"CA002200310","1969-06-01",75.02,62.06,0.00,0.00,
"CA002200310","1969-06-02",62.06,44.96,0.00,0.00,
"CA002200310","1969-06-03",60.98,28.94,0.00,0.00,
"CA002200310","1969-06-04",66.02,44.06,0.00,0.00,
"CA002200310","1969-06-05",68.00,39.02,0.00,0.00,
"CA002200310","1969-06-06",75.02,35.96,0.00,0.00,
"CA002200310","1969-06-07",82.94,48.92,0.00,0.00,
"CA002200310","1969-06-08",80.96,53.06,0.00,0.00,
"CA002200310","1969-06-09",62.06,42.08,36.00,0.00,
"CA002200310","1969-06-10",62.06,48.92,0.00,0.00,
"CA002200310","1969-06-11",53.96,33.98,0.00,0.00,
"CA002200310","1969-06-12",66.02,21.92,0.00,0.00,
"CA002200310","1969-06-13",73.94,30.92,0.00,0.00,
"CA002200310","1969-06-14",69.08,60.08,0.00,0.00,
"CA002200310","1969-06-15",82.94,35.96,56.00,0.00,
"CA002200310","1969-06-16",75.02,55.94,0.00,0.00,
"CA002200310","1969-06-17",66.92,53.96,0.00,0.00,
"CA002200310","1969-06-18",53.06,41.00,10.00,0.00,
"CA002200310","1969-06-19",62.96,42.98,0.00,0.00,
"CA002200310","1969-06-20",64.94,48.92,0.00,0.00,
"CA002200310","1969-06-21",59.00,33.08,0.00,0.00,
"CA002200310","1969-06-22",55.04,39.02,36.00,0.00,
"CA002200310","1969-06-23",55.04,42.98,15.00,0.00,
"CA002200310","1969-06-24",64.04,30.02,0.00,0.00,
"CA002200310","1969-06-25",71.96,33.98,0.00,0.00,
"CA002200310","1969-06-26",62.96,41.00,0.00,0.00,
"CA002200310","1969-06-27",62.96,51.98,0.00,0.00,
"CA002200310","1969-06-28",68.00,42.08,0.00,0.00,
"CA002200310","1969-06-29",69.98,42.08,0.00,0.00,
"CA002200310","1969-06-30",73.94,59.00,0.00,0.00,
"CA002200310","1970-05-07",48.92,,,,
"CA002200310","1970-05-08",62.96,44.06,0.00,0.00,
"CA002200310","1970-05-09",57.02,42.98,0.00,0.00,
"CA002200310","1970-05-10",69.98,30.92,0.00,0.00,
"CA002200310","1970-05-11",73.04,30.02,0.00,0.00,
"CA002200310","1970-05-12",69.98,28.04,0.00,0.00,
"CA002200310","1970-05-13",66.92,28.94,0.00,0.00,
"CA002200310","1970-05-14",64.04,12.02,0.00,0.00,
"CA002200310","1970-05-15",55.94,28.94,0.00,0.00,
"CA002200310","1970-05-16",41.00,19.94,,0.00,
"CA002200310","1970-05-17",35.06,17.96,,0.00,
"CA002200310","1970-05-18",51.08,12.92,20.00,0.00,
"CA002200310","1970-05-19",53.96,12.92,0.00,0.00,
"CA002200310","1970-05-20",55.94,3.92,0.00,0.00,
"CA002200310","1970-05-21",66.92,14.00,0.00,0.00,
"CA002200310","1970-05-22",69.98,12.92,,0.00,
"CA002200310","1970-05-23",69.08,30.92,,0.00,
"CA002200310","1970-05-24",60.98,21.92,38.00,0.00,
"CA002200310","1970-05-25",59.00,33.98,0.00,0.00,
"CA002200310","1970-05-26",60.98,28.94,0.00,0.00,
"CA002200310","1970-05-27",59.00,32.00,0.00,0.00,
"CA002200310","1970-05-28",64.94,21.02,142.00,0.00,
"CA002200310","1970-05-29",60.98,30.02,51.00,0.00,
"CA002200310","1970-05-30",66.92,23.00,28.00,0.00,
"CA002200310","1970-05-31",69.98,30.92,0.00,0.00,
"CA002200310","1970-06-01",78.98,32.00,0.00,0.00,
"CA002200310","1970-06-02",82.04,46.04,0.00,0.00,
"CA002200310","1970-06-03",89.96,37.94,0.00,0.00,
"CA002200310","1970-06-04",82.04,41.00,0.00,0.00,
"CA002200310","1970-06-05",64.04,32.00,0.00,0.00,
"CA002200310","1970-06-06",69.98,21.92,0.00,0.00,
"CA002200310","1970-06-07",53.96,21.92,0.00,0.00,
"CA002200310","1970-06-08",68.00,28.04,0.00,0.00,
"CA002200310","1970-06-09",71.96,33.98,0.00,0.00,
"CA002200310","1970-06-10",60.08,33.98,10.00,0.00,
"CA002200310","1970-06-11",69.98,33.98,0.00,0.00,
"CA002200310","1970-06-12",66.02,35.96,0.00,0.00,
"CA002200310","1970-06-13",84.02,30.92,0.00,0.00,
"CA002200310","1970-06-14",86.00,41.00,0.00,0.00,
"CA002200310","1970-06-15",80.06,48.92,0.00,0.00,
"CA002200310","1970-06-16",62.06,37.94,0.00,0.00,
"CA002200310","1970-06-17",71.96,17.96,,0.00,
"CA002200310","1970-06-18",66.02,35.96,,0.00,
"CA002200310","1970-06-19",69.98,37.94,46.00,0.00,
"CA002200310","1970-06-20",78.08,37.94,15.00,0.00,
"CA002200310","1970-06-21",80.96,35.96,0.00,0.00,
"CA002200310","1970-06-22",69.98,44.06,0.00,0.00,
"CA002200310","1970-06-23",78.98,33.98,0.00,0.00,
"CA002200310","1970-06-24",69.08,30.92,0.00,0.00,
"CA002200310","1970-06-25",71.06,42.08,0.00,0.00,
"CA002200310","1970-06-26",75.02,32.00,0.00,0.00,
"CA002200310","1970-06-27",66.92,33.08,0.00,0.00,
"CA002200310","1970-06-28",69.98,30.92,0.00,0.00,
"CA002200310","1970-06-29",68.00,32.00,0.00,0.00,
"CA002200310","1970-06-30",64.04,35.96,0.00,0.00,
"CA002200310","1970-07-01",69.98,44.06,20.00,0.00,
"CA002200310","1970-07-02",71.06,42.98,0.00,0.00,
"CA002200310","1970-07-03",86.00,46.94,0.00,0.00,
"CA002200310","1970-07-04",80.96,41.00,0.00,0.00,
"CA002200310","1970-07-05",75.02,42.08,0.00,0.00,
"CA002200310","1970-07-06",80.06,42.08,0.00,0.00,
"CA002200310","1970-07-07",77.00,44.06,3.00,0.00,
"CA002200310","1970-07-08",69.08,42.08,3.00,0.00,
"CA002200310","1970-07-09",73.94,42.98,0.00,0.00,
"CA002200310","1970-07-10",75.92,28.04,0.00,0.00,
"CA002200310","1970-07-11",75.92,33.98,,0.00,
"CA002200310","1970-07-12",69.08,42.08,,0.00,
"CA002200310","1970-07-13",75.92,35.96,18.00,0.00,
"CA002200310","1970-07-14",78.08,33.08,28.00,0.00,
"CA002200310","1970-07-15",77.00,39.92,0.00,0.00,
"CA002200310","1970-07-16",71.06,33.08,0.00,0.00,
"CA002200310","1970-07-17",75.92,32.00,0.00,0.00,
"CA002200310","1970-07-18",89.06,41.00,0.00,0.00,
"CA002200310","1970-07-19",91.94,51.08,0.00,0.00,
"CA002200310","1970-07-20",80.96,46.04,0.00,0.00,
"CA002200310","1970-07-21",77.00,35.06,0.00,0.00,
"CA002200310","1970-07-22",64.94,33.98,89.00,0.00,
"CA002200310","1970-07-23",68.00,41.00,0.00,0.00,
"CA002200310","1970-07-24",66.92,33.98,0.00,0.00,
"CA002200310","1970-07-25",69.98,41.00,0.00,0.00,
"CA002200310","1970-07-26",69.08,39.02,0.00,0.00,
"CA002200310","1970-07-27",66.92,30.92,0.00,0.00,
"CA002200310","1970-07-28",77.00,32.00,0.00,0.00,
"CA002200310","1970-07-29",77.00,39.02,0.00,0.00,
"CA002200310","1970-07-30",82.94,32.00,0.00,0.00,
"CA002200310","1970-07-31",69.08,46.94,5.00,0.00,
"CA002200310","1971-06-01",80.96,39.02,0.00,0.00,
"CA002200310","1971-06-02",89.06,44.96,0.00,0.00,
"CA002200310","1971-06-03",80.06,44.06,0.00,0.00,
"CA002200310","1971-06-04",69.08,51.98,0.00,0.00,
"CA002200310","1971-06-05",68.00,44.06,0.00,0.00,
"CA002200310","1971-06-06",68.00,39.02,0.00,0.00,
"CA002200310","1971-06-07",71.06,32.00,0.00,0.00,
"CA002200310","1971-06-08",69.98,51.08,0.00,0.00,
"CA002200310","1971-06-09",71.96,48.02,0.00,0.00,
"CA002200310","1971-06-10",69.98,44.06,10.00,0.00,
"CA002200310","1971-06-11",78.08,39.02,0.00,0.00,
"CA002200310","1971-06-12",73.94,53.06,3.00,0.00,
"CA002200310","1971-06-13",80.06,46.94,0.00,0.00,
"CA002200310","1971-06-14",73.94,53.06,0.00,0.00,
"CA002200310","1971-06-15",78.98,57.92,0.00,0.00,
"CA002200310","1971-06-16",71.96,51.08,0.00,0.00,
"CA002200310","1971-06-17",73.04,41.00,0.00,0.00,
"CA002200310","1971-06-18",71.06,33.98,0.00,0.00,
"CA002200310","1971-06-19",73.94,51.98,0.00,0.00,
"CA002200310","1971-06-20",78.98,42.98,0.00,0.00,
"CA002200310","1971-06-21",75.02,44.96,0.00,0.00,
"CA002200310","1971-06-22",75.92,42.98,0.00,0.00,
"CA002200310","1971-06-23",73.04,46.04,0.00,0.00,
"CA002200310","1971-06-24",73.94,44.06,0.00,0.00,
"CA002200310","1971-06-25",77.00,42.08,0.00,0.00,
"CA002200310","1971-06-26",66.92,44.06,0.00,0.00,
"CA002200310","1971-06-27",66.02,42.98,0.00,0.00,
"CA002200310","1971-06-28",64.94,46.94,0.00,0.00,
"CA002200310","1971-06-29",77.00,30.92,0.00,0.00,
"CA002200310","1971-06-30",73.94,,74.00,0.00,
"CA002200310","1971-07-01",75.92,42.08,0.00,0.00,
"CA002200310","1971-07-02",77.00,48.92,0.00,0.00,
"CA002200310","1971-07-03",73.04,46.04,0.00,0.00,
"CA002200310","1971-07-04",71.96,44.06,0.00,0.00,
"CA002200310","1971-07-05",73.94,46.04,0.00,0.00,
"CA002200310","1971-07-06",66.02,39.02,0.00,0.00,
"CA002200310","1971-07-07",64.04,30.02,,0.00,
"CA002200310","1971-07-08",62.96,48.02,,0.00,
"CA002200310","1971-07-09",69.08,37.94,0.00,0.00,
"CA002200310","1971-07-10",77.00,37.94,0.00,0.00,
"CA002200310","1971-07-11",80.06,42.98,0.00,0.00,
"CA002200310","1971-07-12",82.94,48.92,38.00,0.00,
"CA002200310","1971-07-13",73.04,51.08,0.00,0.00,
"CA002200310","1971-07-14",71.96,53.96,41.00,0.00,
"CA002200310","1971-07-15",68.00,48.92,0.00,0.00,
"CA002200310","1971-07-16",68.00,55.04,33.00,0.00,
"CA002200310","1971-07-17",71.06,55.94,0.00,0.00,
"CA002200310","1971-07-18",73.94,42.08,0.00,0.00,
"CA002200310","1971-07-19",84.92,42.98,38.00,0.00,
"CA002200310","1971-07-20",75.92,53.96,0.00,0.00,
"CA002200310","1971-07-21",66.02,46.94,0.00,0.00,
"CA002200310","1971-07-22",69.08,37.04,107.00,0.00,
"CA002200310","1971-07-23",69.08,48.02,0.00,0.00,
"CA002200310","1971-07-24",68.00,46.94,5.00,0.00,
"CA002200310","1971-07-25",77.00,44.06,3.00,0.00,
"CA002200310","1971-07-26",78.08,44.96,0.00,0.00,
"CA002200310","1971-07-27",73.04,37.94,0.00,0.00,
"CA002200310","1971-07-28",82.04,42.08,0.00,0.00,
"CA002200310","1971-07-29",87.98,55.94,0.00,0.00,
"CA002200310","1971-07-30",75.92,53.96,23.00,0.00,
"CA002200310","1971-07-31",78.98,39.92,0.00,0.00,
"CA002200310","1971-08-01",89.96,55.04,0.00,0.00,
"CA002200310","1971-08-02",93.02,64.04,76.00,0.00,
"CA002200310","1971-08-03",93.92,60.98,0.00,0.00,
"CA002200310","1971-08-04",64.94,51.08,0.00,0.00,
"CA002200310","1971-08-05",73.94,42.08,0.00,0.00,
"CA002200310","1971-08-06",75.92,51.98,0.00,0.00,
"CA002200310","1971-08-07",71.06,51.08,30.00,0.00,
"CA002200310","1971-08-08",69.98,46.94,0.00,0.00,
"CA002200310","1971-08-09",64.94,51.98,23.00,0.00,
"CA002200310","1971-08-10",77.00,44.96,0.00,0.00,
"CA002200310","1971-08-11",62.96,55.94,30.00,0.00,
"CA002200310","1971-08-12",57.92,39.02,0.00,0.00,
"CA002200310","1971-08-13",69.98,42.08,0.00,0.00,
"CA002200310","1971-08-14",71.06,46.94,0.00,0.00,
"CA002200310","1971-08-15",69.98,44.06,0.00,0.00,
"CA002200310","1971-08-16",69.98,42.98,0.00,0.00,
"CA002200310","1971-08-17",62.96,53.06,8.00,0.00,
"CA002200310","1971-08-18",69.98,39.02,0.00,0.00,
"CA002200310","1971-08-19",78.98,39.02,0.00,0.00,
"CA002200310","1971-08-20",89.06,55.94,0.00,0.00,
"CA002200310","1971-08-21",82.04,51.08,0.00,0.00,
"CA002200310","1971-08-22",66.02,55.94,0.00,0.00,
"CA002200310","1971-08-23",75.92,48.92,5.00,0.00,
"CA002200310","1971-08-24",73.94,46.94,0.00,0.00,
"CA002200310","1971-08-25",69.98,41.00,0.00,0.00,
"CA002200310","1971-08-26",69.08,41.00,0.00,0.00,
"CA002200310","1971-08-27",66.02,39.92,48.00,0.00,
"CA002200310","1971-08-28",69.08,33.08,0.00,0.00,
"CA002200310","1971-08-29",75.02,42.98,0.00,0.00,
"CA002200310","1971-08-30",84.02,50.00,0.00,0.00,
"CA002200310","1971-08-31",,48.02,0.00,0.00,
"CA002200310","1971-09-01",71.96,48.02,0.00,0.00,
"CA002200310","1971-09-02",59.00,37.04,0.00,0.00,
"CA002200310","1971-09-03",64.04,39.02,0.00,0.00,
"CA002200310","1971-09-04",71.06,48.02,0.00,0.00,
"CA002200310","1971-09-05",69.08,50.00,0.00,0.00,
"CA002200310","1971-09-06",68.00,44.96,0.00,0.00,
"CA002200310","1971-09-07",68.00,39.92,0.00,0.00,
"CA002200310","1971-09-08",64.04,39.02,0.00,0.00,
"CA002200310","1971-09-09",66.02,37.04,0.00,0.00,
"CA002200310","1971-09-10",62.96,37.94,0.00,0.00,
"CA002200310","1971-09-11",51.98,44.96,0.00,0.00,
"CA002200310","1971-09-12",57.02,42.98,8.00,0.00,
"CA002200310","1971-09-13",,39.02,23.00,0.00,
"CA002200310","1973-05-10",66.02,,,,
"CA002200310","1973-05-11",66.92,,0.00,0.00,
"CA002200310","1973-05-12",73.04,,0.00,0.00,
"CA002200310","1973-05-13",78.98,,0.00,0.00,
"CA002200310","1973-05-14",60.98,,0.00,0.00,
"CA002200310","1973-05-15",71.06,,0.00,0.00,
"CA002200310","1973-05-16",78.08,48.92,3.00,0.00,
"CA002200310","1973-05-17",71.06,44.06,3.00,0.00,
"CA002200310","1973-05-18",60.98,44.96,25.00,0.00,
"CA002200310","1973-05-19",60.98,35.06,183.00,0.00,
"CA002200310","1973-05-20",48.92,37.94,76.00,0.00,
"CA002200310","1973-05-21",53.06,37.04,3.00,0.00,
"CA002200310","1973-05-22",69.98,39.02,5.00,0.00,
"CA002200310","1973-05-23",73.04,46.94,0.00,0.00,
"CA002200310","1973-05-24",78.08,57.02,0.00,0.00,
"CA002200310","1973-05-25",80.96,57.92,0.00,0.00,
"CA002200310","1973-05-26",75.92,51.98,0.00,0.00,
"CA002200310","1973-05-27",75.92,50.00,0.00,0.00,
"CA002200310","1973-05-28",75.92,53.06,8.00,0.00,
"CA002200310","1973-05-29",75.02,51.08,0.00,0.00,
"CA002200310","1973-05-30",73.04,46.04,0.00,0.00,
"CA002200310","1973-05-31",73.94,46.94,0.00,0.00,
"CA002200310","1973-06-01",71.96,44.96,0.00,0.00,
"CA002200310","1973-06-02",64.04,39.92,25.00,0.00,
"CA002200310","1973-06-03",62.96,42.98,114.00,0.00,
"CA002200310","1973-06-04",66.92,42.08,0.00,0.00,
"CA002200310","1973-06-05",66.02,37.04,0.00,0.00,
"CA002200310","1973-06-06",71.06,46.04,0.00,0.00,
"CA002200310","1973-06-07",69.08,48.02,0.00,0.00,
"CA002200310","1973-06-08",62.06,46.04,8.00,0.00,
"CA002200310","1973-06-09",,37.94,0.00,0.00,
"CA002200310","1973-06-10",68.00,,0.00,0.00,
"CA002200310","1973-06-11",69.98,39.02,0.00,0.00,
"CA002200310","1973-06-12",73.04,33.98,0.00,0.00,
"CA002200310","1973-06-13",71.06,39.92,0.00,0.00,
"CA002200310","1973-06-14",,44.96,0.00,0.00,
"CA002200310","1973-06-15",55.04,,0.00,0.00,
"CA002200310","1973-06-16",64.04,44.96,221.00,0.00,
"CA002200310","1973-06-17",62.96,48.92,13.00,0.00,
"CA002200310","1973-06-18",77.00,42.98,0.00,0.00,
"CA002200310","1973-06-19",78.98,48.02,0.00,0.00,
"CA002200310","1973-06-20",80.06,53.96,13.00,0.00,
"CA002200310","1973-06-21",82.04,55.04,0.00,0.00,
"CA002200310","1973-06-22",82.04,53.96,0.00,0.00,
"CA002200310","1973-06-23",82.94,51.08,0.00,0.00,
"CA002200310","1973-06-24",84.92,44.96,0.00,0.00,
"CA002200310","1973-06-25",86.00,50.00,0.00,0.00,
"CA002200310","1973-06-26",77.00,55.04,23.00,0.00,
"CA002200310","1973-06-27",71.06,53.06,142.00,0.00,
"CA002200310","1973-06-28",64.04,46.04,119.00,0.00,
"CA002200310","1973-06-29",57.92,46.04,15.00,0.00,
"CA002200310","1973-06-30",59.00,42.08,23.00,0.00,
"CA002200310","1973-07-01",71.06,35.96,0.00,0.00,
"CA002200310","1973-07-02",78.08,42.98,0.00,0.00,
"CA002200310","1973-07-03",80.96,55.94,10.00,0.00,
"CA002200310","1973-07-04",75.02,53.96,51.00,0.00,
"CA002200310","1973-07-05",57.92,51.98,94.00,0.00,
"CA002200310","1973-07-06",57.02,51.08,61.00,0.00,
"CA002200310","1973-07-07",55.94,50.00,117.00,0.00,
"CA002200310","1973-07-08",57.02,44.96,102.00,0.00,
"CA002200310","1973-07-09",69.98,48.02,10.00,0.00,
"CA002200310","1973-07-10",77.00,50.00,0.00,0.00,
"CA002200310","1973-07-11",71.96,53.06,0.00,0.00,
"CA002200310","1973-07-12",78.98,55.04,0.00,0.00,
"CA002200310","1973-07-13",78.08,55.94,0.00,0.00,
"CA002200310","1973-07-14",71.06,53.96,254.00,0.00,
"CA002200310","1973-07-15",57.92,48.02,107.00,0.00,
"CA002200310","1973-07-16",71.06,48.92,0.00,0.00,
"CA002200310","1973-07-17",75.02,42.98,20.00,0.00,
"CA002200310","1973-07-18",77.00,51.98,0.00,0.00,
"CA002200310","1973-07-19",87.08,53.96,0.00,0.00,
"CA002200310","1973-07-20",91.04,59.00,0.00,0.00,
"CA002200310","1973-07-21",82.04,66.02,0.00,0.00,
"CA002200310","1973-07-22",78.08,44.96,0.00,0.00,
"CA002200310","1973-07-23",78.08,46.94,0.00,0.00,
"CA002200310","1973-07-24",77.00,53.06,135.00,0.00,
"CA002200310","1973-07-25",71.96,60.98,5.00,0.00,
"CA002200310","1973-07-26",75.02,46.94,53.00,0.00,
"CA002200310","1973-07-27",75.92,51.98,0.00,0.00,
"CA002200310","1973-07-28",82.04,55.04,23.00,0.00,
"CA002200310","1973-07-29",82.94,53.96,5.00,0.00,
"CA002200310","1973-07-30",80.06,59.00,0.00,0.00,
"CA002200310","1973-07-31",80.96,57.02,0.00,0.00,
"CA002200310","1973-08-01",73.04,48.92,0.00,0.00,
"CA002200310","1973-08-02",75.02,44.96,0.00,0.00,
"CA002200310","1973-08-03",75.92,57.92,0.00,0.00,
"CA002200310","1973-08-04",,57.92,0.00,0.00,
"CA002200310","1973-08-05",75.02,,20.00,0.00,
"CA002200310","1973-08-06",73.04,50.00,0.00,0.00,
"CA002200310","1973-08-07",80.96,46.94,0.00,0.00,
"CA002200310","1973-08-08",87.08,55.94,0.00,0.00,
"CA002200310","1973-08-09",82.04,60.98,0.00,0.00,
"CA002200310","1973-08-10",71.06,55.04,0.00,0.00,
"CA002200310","1973-08-11",77.00,46.94,0.00,0.00,
"CA002200310","1973-08-12",78.98,50.00,0.00,0.00,
"CA002200310","1973-08-13",75.92,53.06,0.00,0.00,
"CA002200310","1973-08-14",69.98,44.06,112.00,0.00,
"CA002200310","1973-08-15",55.94,48.92,5.00,0.00,
"CA002200310","1973-08-16",51.98,42.08,71.00,0.00,
"CA002200310","1973-08-17",51.98,44.06,391.00,0.00,
"CA002200310","1973-08-18",44.06,42.08,33.00,0.00,
"CA002200310","1973-08-19",53.06,35.96,0.00,0.00,
"CA002200310","1973-08-20",60.98,28.94,0.00,0.00,
"CA002200310","1973-08-21",66.02,35.96,0.00,0.00,
"CA002200310","1973-08-22",78.08,39.02,0.00,0.00,
"CA002200310","1973-08-23",80.96,42.08,0.00,0.00,
"CA002200310","1973-08-24",73.94,48.02,69.00,0.00,
"CA002200310","1973-08-25",71.96,53.06,0.00,0.00,
"CA002200310","1973-08-26",,48.02,0.00,0.00,
"CA002200310","1973-08-27",,,,0.00,
"CA002200310","1973-08-28",,,,0.00,
"CA002200310","1973-08-29",,,0.00,0.00,